451P/Christensen (2022)

Japanese version
Home page
Updated on March 5, 2023

---------------------------------------------------------------------

* Profile

Designation 451P/2022 S2
Recovery Date September 27, 2022
Magnitude 21.0 mag
Recoverer Erwin Schwab (Egelsbach, Germany)

* Pictures

* Orbital Elements

Epoch 2023 Feb. 25.0 TT = JDT 2460000.5
T 2022 Nov. 27.52940 TT                                 Rudenko
q   2.7985262            (2000.0)            P               Q
n   0.06175857     Peri.  186.69571     -0.59975300     -0.70279932
a   6.3387638      Node   300.91184     +0.75328572     -0.33460703
e   0.5585060      Incl.   26.48234     +0.26992027     -0.62778280
P  16.0
>From 148 observations 2006 Nov. 24-2023 Feb. 21, mean residual 0".8.

* Magnitudes Graph

        m1 = 9.0 + 5 log d + 20.0 log r

---------------------------------------------------------------------

The orbital elements are published on M.P.E.C. 2023-D72.
The magnitudes graphs are made with Comet for Windows.

---------------------------------------------------------------------

Copyright(C) Seiichi Yoshida (comet@aerith.net). All rights reserved.